[[{"header":{"parameterUnit":"m.s-1","parameterCategory":1,"la1":30.2991,"la2":30.254,"lo1":-89.0895,"lo2":-89.0444,"dy":0.0017,"dx":0.0017,"nx":28,"ny":28,"refTime":"2024-07-09T03:00:00:Z","depth":0,"parameterNumber":2,"parameterNumberName":"U-component_of_WINDS"},"data":[0,0,0,0,0,0,0,0,0,0,0,0,0,0,0,0,0,0,0,0,0,0,0,0,0,0,0,0,0,0,0,0,0,0,0,0,0,0,0,0,0,0,0,0,0,0,0,0,0,0,0,0,0,0,0,0,0,0,4.8412,4.8414,0,4.863,4.8633,4.8635,4.8642,4.864,4.8637,4.8635,4.8855,4.8863,4.8871,0,0,0,0,0,0,0,0,0,0,0,0,0,4.7995,4.8002,4.8412,4.8414,4.8417,4.863,4.8633,4.8636,4.8643,4.864,4.8636,4.8633,4.8852,4.8862,4.8872,0,0,0,0,0,0,0,0,0,0,0,0,0,4.8191,4.8005,4.8411,4.8446,4.8452,4.8629,4.8633,4.8637,4.8644,4.864,4.8636,4.8632,4.8849,4.8861,4.8873,4.9029,0,0,4.8911,4.8917,0,0,0,0,0,0,0,0,4.818,4.8206,4.8438,4.8444,4.8451,4.8605,4.8567,4.8768,4.8645,4.8571,4.8635,4.863,4.8775,4.8793,4.8842,4.9039,4.9049,4.8912,4.892,4.8925,4.8929,0,0,0,0,0,0,0,4.8166,4.8197,4.8498,4.8442,4.8449,4.8449,4.8473,4.8605,4.8692,4.8577,4.8578,4.8604,4.8777,4.883,4.8848,4.9052,4.8912,4.8923,4.8931,4.8936,4.9384,4.9389,0,0,0,0,0,0,4.8146,4.8185,4.8491,4.8505,4.8303,4.846,4.8486,4.8559,4.8691,4.8707,4.8607,4.8603,4.8811,4.8833,4.8855,4.9044,4.8925,4.8937,4.8944,4.938,4.9385,4.939,0,0,0,0,0,0,4.8137,4.8173,4.8482,4.8345,4.8385,4.8472,4.8553,4.8566,4.8619,4.8713,4.8728,4.8646,4.8809,4.8838,4.8985,4.9052,4.8942,4.8954,4.9375,4.9382,4.9388,4.9424,0,0,0,0,0,0,4.8125,4.817,4.8232,4.8347,4.8392,4.861,4.8558,4.8573,4.8641,4.8638,4.8754,4.8769,4.8808,4.8967,4.8998,4.9067,4.8963,4.9369,4.9378,4.9386,4.9417,4.9431,4.9443,0,0,0,0,0,4.811,4.8233,4.8235,4.8272,4.8471,4.8614,4.864,4.8683,4.8647,4.8708,4.8768,4.8765,4.904,4.8982,4.9017,4.9091,4.9365,4.9375,4.9385,4.9412,4.9429,4.9443,0,0,0,0,0,0,4.8123,4.8249,4.8252,4.8417,4.8505,4.8615,4.8694,4.87,4.88,4.8793,4.8841,4.8867,4.9013,4.9067,4.9,4.9247,4.9198,4.9215,4.9206,4.9223,4.9236,4.9219,4.8974,0,0,0,0,0,4.8146,4.8253,4.8356,4.8491,4.8535,4.8607,4.8671,4.8697,4.8789,4.8826,4.8897,4.8986,4.9092,4.9161,4.9264,4.9426,4.9449,4.9494,4.9506,4.9517,4.953,4.9616,4.9637,4.9423,4.9423,4.9423,0,0,4.8192,4.8274,4.8339,4.8496,4.8567,4.8675,4.8639,4.8755,4.8834,4.8844,4.8987,4.9042,4.9144,4.9298,4.937,4.9348,4.9595,4.9529,4.9537,4.9545,4.9629,4.9649,4.9667,4.943,4.9428,4.9427,0,0,4.8331,4.8406,4.8525,4.8597,4.8705,4.8752,4.878,4.889,4.8927,4.9072,4.908,4.9174,4.9357,4.9428,4.9488,4.9652,4.9652,4.9684,4.9751,4.9834,4.9851,4.9866,4.9921,4.9941,4.9698,4.9698,4.9699,0,4.8375,4.854,4.8585,4.8701,4.8768,4.8782,4.8901,4.8969,4.9105,4.915,4.9124,4.9351,4.9421,4.959,4.963,4.968,4.9711,4.9671,4.9845,4.9861,4.9876,4.9929,4.995,4.9701,4.9701,4.9701,4.9701,0,4.8586,4.87,4.8783,4.8914,4.8991,4.9108,4.9168,4.9241,4.9259,4.9307,4.9452,4.9537,4.9656,4.9698,4.9718,4.987,4.9852,4.9836,4.9787,4.9898,4.9949,4.997,4.9706,4.9705,4.9704,4.9703,0,0,4.874,4.8894,4.8923,4.8982,4.9101,4.9189,4.9305,4.9422,4.9481,4.9574,4.9671,4.9824,4.9808,4.9876,4.9904,4.9977,5.0097,4.9951,4.9954,4.9972,5.0266,5.0277,5.03,5.0099,5.0103,5.0106,5.0257,0,4.8891,4.9099,4.9142,4.9321,4.9425,4.9438,4.9539,4.9622,4.967,4.9763,4.9816,4.9922,4.9895,4.9936,5.0009,5.0067,5.0157,5.0057,5.0186,5.019,5.0158,5.0327,5.0339,5.0477,5.0277,5.0281,5.0283,0,4.9094,4.9192,4.9381,4.9485,4.953,4.962,4.9728,4.9819,4.9912,4.9941,5.0016,5.0035,5.0153,5.01,5.0262,5.0194,5.0249,5.0285,5.0291,5.0303,5.0242,5.034,5.0522,5.0542,5.0316,5.0313,5.0311,0,4.9184,4.9363,4.9498,4.9548,4.9673,4.9735,4.979,4.9879,4.9946,5.004,5.0083,5.0191,5.0249,5.033,5.0376,5.0334,5.0533,5.0485,5.0559,5.0557,5.0599,5.0595,5.0789,5.0639,5.0638,5.0638,5.0638,0,4.9346,4.946,4.954,4.9623,4.9751,4.9798,4.9923,4.9976,5.0055,5.0147,5.0166,5.0252,5.0309,5.0401,5.0438,5.0565,5.0592,5.0617,5.0625,5.0614,5.061,5.0649,5.0639,5.0644,5.0642,5.0641,5.064,0,4.9467,4.9525,4.9674,4.9779,4.9808,4.9897,4.9986,5.0066,5.0114,5.023,5.026,5.0334,5.0444,5.0499,5.0636,5.066,5.0802,5.0806,5.0771,5.0773,5.0843,5.0834,5.1067,5.1098,5.0929,5.0931,5.0932,0,4.9565,4.9654,4.9768,4.9832,4.9888,4.999,5.0057,5.0106,5.0176,5.0287,5.0353,5.0464,5.0555,5.073,5.0795,5.0899,5.0903,5.0977,5.0918,5.0903,5.09,5.0893,5.09,5.0986,5.0988,5.0989,5.0991,0,4.9733,4.9757,4.9854,4.9961,5.0041,5.0128,5.0213,5.0263,5.0325,5.0402,5.0515,5.0586,5.0725,5.0833,5.0942,5.0996,5.1002,5.1009,5.1031,5.1019,5.0994,5.1005,5.0796,5.1003,5.1001,5.1001,5.1,5.0999,4.9844,4.9922,5.0014,5.0121,5.019,5.0268,5.0348,5.0405,5.05,5.0618,5.0641,5.0759,5.0847,5.0993,5.105,5.1142,5.1126,5.1159,5.1166,5.1173,5.1175,5.0981,5.1163,5.1162,5.1162,5.1162,5.1162,0,5.001,5.0069,5.0167,5.0285,5.0369,5.0369,5.0463,5.0531,5.0636,5.0718,5.0807,5.0935,5.104,5.1113,5.1219,5.1278,5.1284,5.1304,5.1299,5.131,5.1185,5.1154,5.1298,5.1298,5.1297,5.1297,5.1297,5.1297,5.0106,5.0236,5.0271,5.0435,5.0493,5.061,5.0663,5.0734,5.0799,5.0941,5.1029,5.1076,5.1153,5.1265,5.136,5.1378,5.1415,5.1435,5.1453,5.1334,5.132,5.1306,5.1277,5.1444,5.1444,5.157,5.1571,5.1572]},{"header":{"parameterUnit":"m.s-1","parameterCategory":1,"la1":30.2991,"la2":30.254,"lo1":-89.0895,"lo2":-89.0444,"dy":0.0017,"dx":0.0017,"nx":28,"ny":28,"refTime":"2024-07-09T03:00:00:Z","depth":0,"parameterNumber":3,"parameterNumberName":"V-component_of_WINDS"},"data":[0,0,0,0,0,0,0,0,0,0,0,0,0,0,0,0,0,0,0,0,0,0,0,0,0,0,0,0,0,0,0,0,0,0,0,0,0,0,0,0,0,0,0,0,0,0,0,0,0,0,0,0,0,0,0,0,0,0,2.9875,2.9875,0,2.9851,2.9851,2.9851,2.9783,2.9781,2.978,2.9778,2.9754,2.9755,2.9755,0,0,0,0,0,0,0,0,0,0,0,0,0,2.9862,2.9863,2.9875,2.9875,2.9875,2.9851,2.9851,2.9851,2.9783,2.9781,2.9779,2.9778,2.9754,2.9754,2.9755,0,0,0,0,0,0,0,0,0,0,0,0,0,2.9856,2.9863,2.9875,2.9838,2.9835,2.9851,2.9851,2.985,2.9783,2.9781,2.9779,2.9777,2.9753,2.9754,2.9755,2.9806,0,0,2.9759,2.9759,0,0,0,0,0,0,0,0,2.9856,2.9856,2.9844,2.9841,2.9837,2.9818,2.9837,2.9836,2.9784,2.9803,2.9778,2.9776,2.9777,2.9776,2.9776,2.9805,2.9804,2.9759,2.9759,2.976,2.976,0,0,0,0,0,0,0,2.9857,2.9857,2.9866,2.9844,2.984,2.9822,2.9819,2.9836,2.9803,2.9801,2.9796,2.9794,2.9774,2.9775,2.9775,2.9804,2.9759,2.976,2.976,2.9761,2.987,2.9872,0,0,0,0,0,0,2.9863,2.9858,2.9867,2.9865,2.9841,2.9824,2.9821,2.9826,2.9802,2.9796,2.9796,2.9791,2.9775,2.9774,2.9774,2.983,2.976,2.9761,2.9762,2.9868,2.9871,2.9873,0,0,0,0,0,0,2.9863,2.9864,2.9867,2.986,2.9859,2.9827,2.9834,2.9827,2.9827,2.9798,2.9792,2.9803,2.9773,2.9772,2.9798,2.9828,2.9761,2.9762,2.9865,2.9869,2.9872,2.9943,0,0,0,0,0,0,2.9863,2.9864,2.9884,2.9861,2.986,2.9893,2.9835,2.9828,2.9829,2.9823,2.9803,2.9798,2.9771,2.9797,2.9799,2.9828,2.9763,2.9862,2.9867,2.9871,2.9938,2.9949,2.9958,0,0,0,0,0,2.9862,2.9906,2.9885,2.9887,2.9883,2.9895,2.9894,2.9862,2.9832,2.9851,2.9832,2.9799,2.9825,2.98,2.9802,2.9832,2.986,2.9865,2.987,2.9934,2.9947,2.9957,0,0,0,0,0,0,2.9933,2.9902,2.9879,2.9916,2.9908,2.9883,2.9906,2.9877,2.9878,2.9871,2.9832,2.9828,2.9858,2.9848,2.9821,2.9879,2.9837,2.9843,2.9884,2.9896,2.9906,2.9907,2.9764,0,0,0,0,0,2.9953,2.9965,2.9937,2.9972,2.997,2.9939,2.9942,2.9918,2.9909,2.9905,2.9888,2.988,2.9886,2.9891,2.9895,2.9936,2.993,2.9958,2.9968,2.9976,2.9981,3.0,3.0011,2.989,2.989,2.989,0,0,2.9995,2.9979,2.9989,2.9986,2.9977,2.999,2.9936,2.9952,2.9961,2.9907,2.993,2.9917,2.9905,2.9939,2.9952,2.9931,3.0013,2.9983,2.9989,2.999,3.0006,3.0018,3.0028,2.9893,2.9893,2.9892,0,0,3.0076,3.0066,3.0093,3.0085,3.0072,3.0051,3.0057,3.0036,3.0025,3.0047,3.0007,3.0016,3.0028,3.0021,3.0019,3.0095,3.0064,3.0098,3.0149,3.0168,3.0177,3.0186,3.0211,3.0221,3.0103,3.0103,3.0104,0,3.0129,3.0146,3.0111,3.0129,3.0128,3.008,3.0106,3.01,3.009,3.009,3.0066,3.0078,3.0067,3.0097,3.0115,3.0116,3.0121,3.0099,3.0179,3.0187,3.0194,3.0218,3.0228,3.0107,3.0107,3.0107,3.0106,0,3.021,3.0223,3.0246,3.0236,3.0238,3.0261,3.0228,3.0235,3.021,3.0191,3.0213,3.0198,3.0197,3.0203,3.018,3.0229,3.0215,3.0186,3.0143,3.021,3.0232,3.0241,3.0113,3.0112,3.0111,3.011,0,0,3.0336,3.0305,3.0314,3.0308,3.0289,3.0298,3.0318,3.0316,3.0321,3.0316,3.033,3.034,3.0312,3.031,3.0285,3.0302,3.0361,3.027,3.0269,3.0286,3.0412,3.0433,3.0444,3.0341,3.0342,3.0344,3.0412,0,3.0411,3.0442,3.041,3.0448,3.0458,3.0412,3.0428,3.0418,3.0401,3.0407,3.0388,3.0395,3.0358,3.0356,3.0371,3.0351,3.0386,3.0346,3.0352,3.0353,3.0355,3.0456,3.0479,3.0544,3.0421,3.0422,3.0423,0,3.0502,3.0499,3.0538,3.0515,3.0518,3.0533,3.0528,3.0535,3.0522,3.0508,3.0505,3.0475,3.0491,3.045,3.0472,3.0445,3.0446,3.0437,3.0438,3.0437,3.0391,3.0455,3.0564,3.0574,3.0437,3.0436,3.0435,0,3.0587,3.0593,3.0616,3.0612,3.0587,3.0598,3.0588,3.0574,3.0574,3.057,3.057,3.0568,3.0567,3.0566,3.0536,3.0509,3.056,3.0518,3.0548,3.0549,3.056,3.0559,3.0669,3.0564,3.0564,3.0563,3.0563,0,3.0673,3.0698,3.0653,3.0667,3.0693,3.0656,3.0683,3.0668,3.0655,3.0664,3.0625,3.0635,3.0596,3.0601,3.0578,3.0598,3.0598,3.0586,3.0579,3.0589,3.059,3.0588,3.0582,3.0566,3.0565,3.0565,3.0565,0,3.0772,3.0743,3.0765,3.0738,3.0732,3.0752,3.0729,3.0741,3.0721,3.0733,3.0734,3.0702,3.0707,3.0677,3.0676,3.066,3.069,3.0677,3.0694,3.0689,3.0721,3.0718,3.0832,3.0844,3.0733,3.0734,3.0735,0,3.0828,3.0845,3.082,3.0824,3.0815,3.0822,3.0821,3.0786,3.0788,3.0774,3.0786,3.0787,3.0786,3.0795,3.0771,3.077,3.0754,3.0795,3.0754,3.0762,3.0753,3.0751,3.0752,3.0803,3.0804,3.0805,3.0806,0,3.0929,3.0913,3.0915,3.0911,3.0912,3.0908,3.09,3.0905,3.0867,3.087,3.0874,3.0873,3.0871,3.0871,3.0865,3.0854,3.0823,3.0819,3.0826,3.0835,3.0843,3.0837,3.0715,3.0816,3.0815,3.0815,3.0814,3.0814,3.1006,3.1019,3.1003,3.1005,3.0996,3.099,3.0998,3.0979,3.0981,3.0976,3.0955,3.0962,3.0947,3.0936,3.0927,3.0932,3.0912,3.0922,3.0925,3.0927,3.0932,3.0844,3.0931,3.093,3.093,3.093,3.093,0,3.1103,3.1091,3.1093,3.1084,3.1085,3.1056,3.1046,3.105,3.1056,3.1045,3.1044,3.1047,3.1047,3.1024,3.1021,3.1029,3.1014,3.1029,3.1027,3.1024,3.0951,3.0944,3.104,3.104,3.104,3.104,3.104,3.104,3.1154,3.1173,3.1156,3.1169,3.1156,3.1162,3.1159,3.1152,3.1143,3.1148,3.1148,3.1132,3.1116,3.1111,3.1109,3.1102,3.1102,3.1121,3.111,3.1041,3.103,3.102,3.1013,3.1122,3.1122,3.1182,3.1183,3.1183]}]]